Weather History for KKLS - May, 2014

Change the Weather History Date:

Tuesday, May 13, 2014

  Actual Average Record
Temperature  
Mean Temperature 65 °F -  
Max Temperature 84 °F 61 °F 84 °F (2012)
Min Temperature 46 °F 42 °F 33 °F (2011)
Growing Degree Days 15 (Base 50)    
Moisture  
Dew Point 43 °F    
Average Humidity 47    
Maximum Humidity 82    
Minimum Humidity 22    
Precipitation  
Precipitation 0.00 in - - ()
Sea Level Pressure  
Sea Level Pressure 30.32 in    
Wind  
Wind Speed 3 mph (NNW)    
Max Wind Speed 13 mph    
Max Gust Speed 18 mph    
Visibility 10 miles    
Events      
Averages and records for this station are not official NWS values.
T = Trace of Precipitation, MM = Missing Value Source: NWS Daily Summary

Daily Weather History Graph

Daily Weather History Graph

Search for Another Location

Airport or City:

Trip Planner

Search our weather history database for the weather conditions in past years. The results will help you decide how hot, cold, wet, or windy it might be!

Date:

Astronomy

May. 13, 2014 Rise Set
Actual Time 5:41 AM PDT 8:35 PM PDT
Civil Twilight 5:06 AM PDT 9:10 PM PDT
Nautical Twilight 4:21 AM PDT 9:55 PM PDT
Astronomical Twilight 3:29 AM PDT 10:48 PM PDT
Moon 7:39 PM PDT (5/13) 5:07 AM PDT (5/13)
Length of Visible Light 16h 03m
Length of Day
14h 53m
Waxing Gibbous, 99% of the Moon is Illuminated
May 13
Waxing Gibbous
May 14
Full
May 21
Last Quarter
May 28
New
Jun 5
First Quarter

Hourly Weather History & Observations

Time (PDT) Temp. Dew Point Humidity Pressure Visibility Wind Dir Wind Speed Gust Speed Precip Events Conditions
12:35 AM 53.6 °F 42.8 °F 67% 30.33 in 10.0 mi Calm Calm - N/A   Clear
12:55 AM 51.8 °F 41.0 °F 67% 30.33 in 10.0 mi Calm Calm - N/A   Clear
1:15 AM 51.8 °F 41.0 °F 67% 30.33 in 10.0 mi Calm Calm - N/A   Clear
1:35 AM 50.0 °F 42.8 °F 76% 30.33 in 10.0 mi Calm Calm - N/A   Clear
1:55 AM 50.0 °F 42.8 °F 76% 30.33 in 10.0 mi Calm Calm - N/A   Clear
2:15 AM 50.0 °F 41.0 °F 71% 30.33 in 10.0 mi Calm Calm - N/A   Clear
2:35 AM 50.0 °F 42.8 °F 76% 30.33 in 10.0 mi Calm Calm - N/A   Clear
2:55 AM 50.0 °F 42.8 °F 76% 30.34 in 10.0 mi Calm Calm - N/A   Clear
3:15 AM 48.2 °F 42.8 °F 82% 30.34 in 10.0 mi Calm Calm - N/A   Clear
3:35 AM 48.2 °F 41.0 °F 76% 30.35 in 10.0 mi Calm Calm - N/A   Clear
3:55 AM 48.2 °F 41.0 °F 76% 30.35 in 10.0 mi Calm Calm - N/A   Clear
4:15 AM 48.2 °F 41.0 °F 76% 30.35 in 10.0 mi Calm Calm - N/A   Clear
4:35 AM 48.2 °F 41.0 °F 76% 30.35 in 10.0 mi Calm Calm - N/A   Clear
4:55 AM 48.2 °F 41.0 °F 76% 30.35 in 10.0 mi Calm Calm - N/A   Clear
5:15 AM 48.2 °F 41.0 °F 76% 30.34 in 10.0 mi Calm Calm - N/A   Clear
6:15 AM 46.4 °F 41.0 °F 81% 30.32 in 10.0 mi Calm Calm - N/A   Clear
6:35 AM 46.4 °F 41.0 °F 81% 30.34 in 10.0 mi Calm Calm - N/A   Clear
6:55 AM 46.4 °F 41.0 °F 81% 30.35 in 10.0 mi Calm Calm - N/A   Clear
7:15 AM 48.2 °F 41.0 °F 76% 30.36 in 10.0 mi Calm Calm - N/A   Clear
7:55 AM 53.6 °F 41.0 °F 62% 30.36 in 10.0 mi Calm Calm - N/A   Clear
9:35 AM 64.4 °F 37.4 °F 37% 30.37 in 10.0 mi NNW 11.5 mph - N/A   Clear
9:55 AM 66.2 °F 39.2 °F 37% 30.35 in 10.0 mi NNW 8.1 mph - N/A   Clear
10:35 AM 68.0 °F 42.8 °F 40% 30.36 in 10.0 mi NW 5.8 mph - N/A   Clear
10:55 AM 69.8 °F 42.8 °F 38% 30.36 in 10.0 mi NNW 9.2 mph - N/A   Clear
11:15 AM 71.6 °F 42.8 °F 35% 30.36 in 10.0 mi NNW 9.2 mph - N/A   Clear
11:35 AM 71.6 °F 44.6 °F 38% 30.35 in 10.0 mi NW 4.6 mph - N/A   Clear
11:55 AM 73.4 °F 44.6 °F 36% 30.35 in 10.0 mi NW 9.2 mph - N/A   Clear
12:15 PM 75.2 °F 44.6 °F 34% 30.34 in 10.0 mi NW 5.8 mph - N/A   Clear
12:35 PM 77.0 °F 44.6 °F 32% 30.34 in 10.0 mi North 8.1 mph - N/A   Clear
12:55 PM 78.8 °F 42.8 °F 28% 30.34 in 10.0 mi NW 6.9 mph - N/A   Clear
1:15 PM 78.8 °F 42.8 °F 28% 30.34 in 10.0 mi North 10.4 mph - N/A   Clear
1:35 PM 78.8 °F 41.0 °F 26% 30.33 in 10.0 mi NW 6.9 mph - N/A   Clear
1:55 PM 80.6 °F 39.2 °F 23% 30.33 in 10.0 mi NNW 8.1 mph - N/A   Clear
2:15 PM 80.6 °F 41.0 °F 24% 30.33 in 10.0 mi NW 8.1 mph - N/A   Clear
2:35 PM 82.4 °F 41.0 °F 23% 30.32 in 10.0 mi NNW 8.1 mph - N/A   Clear
2:55 PM 82.4 °F 41.0 °F 23% 30.31 in 10.0 mi NNW 5.8 mph - N/A   Clear
3:15 PM 82.4 °F 41.0 °F 23% 30.30 in 10.0 mi NNW 8.1 mph - N/A   Clear
3:35 PM 82.4 °F 41.0 °F 23% 30.29 in 10.0 mi WNW 4.6 mph - N/A   Clear
3:55 PM 82.4 °F 41.0 °F 23% 30.29 in 10.0 mi NW 6.9 mph - N/A   Clear
4:15 PM 84.2 °F 42.8 °F 23% 30.29 in 10.0 mi North 8.1 mph - N/A   Clear
4:35 PM 84.2 °F 42.8 °F 23% 30.28 in 10.0 mi NNW 5.8 mph - N/A   Clear
4:55 PM 84.2 °F 41.0 °F 22% 30.28 in 10.0 mi NNW 6.9 mph - N/A   Clear
5:15 PM 84.2 °F 41.0 °F 22% 30.28 in 10.0 mi NNW 10.4 mph - N/A   Clear
5:35 PM 84.2 °F 42.8 °F 23% 30.28 in 10.0 mi NNW 11.5 mph 16.1 mph N/A   Clear
5:55 PM 82.4 °F 42.8 °F 25% 30.27 in 10.0 mi North 9.2 mph 16.1 mph N/A   Clear
6:15 PM 82.4 °F 42.8 °F 25% 30.27 in 10.0 mi NNW 12.7 mph 18.4 mph N/A   Clear
6:35 PM 82.4 °F 42.8 °F 25% 30.27 in 10.0 mi North 10.4 mph - N/A   Clear
6:55 PM 80.6 °F 42.8 °F 26% 30.26 in 10.0 mi North 8.1 mph - N/A   Clear
7:15 PM 80.6 °F 42.8 °F 26% 30.27 in 10.0 mi North 9.2 mph - N/A   Clear
7:55 PM 78.8 °F 42.8 °F 28% 30.27 in 10.0 mi North 8.1 mph - N/A   Clear
8:15 PM 77.0 °F 42.8 °F 29% 30.27 in 10.0 mi NNW 3.5 mph - N/A   Clear
8:35 PM 73.4 °F 44.6 °F 36% 30.28 in 10.0 mi Calm Calm - N/A   Clear
8:55 PM 69.8 °F 46.4 °F 43% 30.28 in 9.0 mi Calm Calm - N/A   Clear
9:15 PM 66.2 °F 48.2 °F 52% 30.29 in 10.0 mi Calm Calm - N/A   Clear
9:35 PM 66.2 °F 48.2 °F 52% 30.30 in 10.0 mi Calm Calm - N/A   Clear
9:55 PM 64.4 °F 46.4 °F 52% 30.30 in 10.0 mi Calm Calm - N/A   Clear
10:15 PM 64.4 °F 46.4 °F 52% 30.31 in 10.0 mi Calm Calm - N/A   Clear
10:35 PM 62.6 °F 48.2 °F 59% 30.31 in 10.0 mi Calm Calm - N/A   Clear
10:55 PM 62.6 °F 46.4 °F 55% 30.31 in 10.0 mi Calm Calm - N/A   Clear
11:15 PM 62.6 °F 46.4 °F 55% 30.31 in 10.0 mi Calm Calm - N/A   Clear
11:35 PM 60.8 °F 46.4 °F 59% 30.31 in 10.0 mi Calm Calm - N/A   Clear
11:55 PM 60.8 °F 46.4 °F 59% 30.31 in 10.0 mi Calm Calm - N/A   Clear